Wind_Speed
24 23 23 23 21 20 19 19 18 18 17 17 16 17 17 16 16 15 14 14 14 15 15 14 14 15 15 16 16 16 17 17 17 17 17 17 17 18 18 18 18 17 17 18
25 25 25 24 23 22 22 21 21 19 19 18 18 18 18 17 17 16 16 16 16 17 16 16 16 16 17 17 17 17 18 18 18 18 19 18 18 19 19 19 19 19 18 18
25 26 25 25 23 23 23 22 21 20 20 20 20 20 19 19 19 18 18 18 18 18 17 18 18 18 18 18 18 19 19 19 19 20 20 20 20 19 19 20 20 20 20 20
25 26 26 23 23 23 23 23 23 22 22 22 21 21 21 20 20 20 20 19 19 19 19 19 20 20 20 20 20 21 21 21 21 21 21 21 21 21 20 21 21 21 21 21
26 25 24 24 24 23 24 24 23 23 23 22 21 21 21 21 20 20 20 20 20 20 20 20 20 21 21 22 22 22 23 23 23 23 22 22 22 22 22 22 23 23 22 23
28 27 25 25 24 23 23 24 23 22 22 22 21 21 22 21 22 22 21 21 21 21 21 21 22 22 23 23 23 24 24 24 24 23 23 22 23 23 23 23 24 24 24 25
28 27 25 26 25 23 24 24 23 23 23 23 23 23 23 23 23 23 23 23 23 23 22 23 23 24 23 24 25 25 25 25 25 24 24 24 24 24 24 25 25 26 26 26
29 28 27 27 25 25 25 25 24 24 23 24 24 24 24 24 24 25 24 24 24 24 24 24 24 24 25 25 26 27 27 26 25 25 25 25 25 26 26 27 27 27 27 27
30 30 30 29 28 27 26 26 26 26 25 25 25 25 25 25 25 25 25 25 25 24 25 25 26 26 26 26 27 28 27 26 25 25 26 26 27 27 27 28 28 28 27 27
31 31 30 30 29 28 28 27 27 27 27 27 26 26 26 26 25 26 26 26 25 25 25 26 27 27 27 27 27 26 26 26 25 25 26 27 28 28 28 28 28 28 28 28
30 30 30 30 29 29 29 28 28 28 28 27 27 27 27 26 26 27 27 26 26 26 27 27 27 27 28 27 26 26 26 26 26 26 26 27 27 28 28 28 28 28 28 28
32 31 31 31 31 30 29 28 28 27 27 27 27 27 27 27 27 27 27 27 27 27 28 27 27 27 27 27 26 26 26 27 27 27 27 28 29 29 28 28 28 28 28 28
33 33 32 32 32 31 31 30 29 28 28 28 27 27 26 26 27 28 28 28 28 28 28 27 27 27 27 27 26 27 27 27 27 27 28 29 29 29 28 28 29 29 28 28
33 32 31 32 32 32 32 31 30 29 29 28 28 28 28 27 28 28 29 28 28 27 27 28 28 27 27 27 27 26 27 27 28 28 28 28 29 28 28 28 29 29 29 28
31 31 31 31 31 31 31 31 31 30 30 29 29 29 30 30 29 29 30 29 29 28 28 29 29 29 28 27 27 26 27 27 27 28 28 27 27 27 28 28 29 30 29 28
30 30 30 30 30 30 30 30 31 31 31 31 31 31 31 31 31 31 31 30 30 29 30 31 30 29 29 28 27 27 27 27 27 27 27 27 28 28 28 28 28 28 28 28
30 30 30 30 30 31 31 30 30 31 31 32 31 31 31 31 31 31 31 31 31 31 31 32 31 30 29 29 28 28 28 27 27 27 27 27 28 28 28 28 28 29 28 28
30 30 30 30 30 30 30 29 30 31 32 32 32 31 31 31 31 31 32 32 32 32 32 32 31 31 30 29 28 27 27 27 27 26 27 28 28 28 27 28 28 27 27 27
29 29 30 29 29 29 28 29 29 30 30 31 31 31 31 32 32 32 32 32 32 31 31 31 31 29 29 28 28 28 28 28 27 27 28 28 27 26 26 27 27 27 27 26
26 27 28 29 29 28 27 27 27 28 29 30 30 30 30 30 31 31 32 31 31 30 30 30 30 29 28 28 28 27 27 27 27 27 27 27 26 26 26 26 27 26 26 26
24 24 25 27 27 27 27 27 27 27 27 28 29 29 29 29 29 30 29 29 28 28 28 28 28 28 28 27 27 26 26 27 26 26 26 26 26 26 25 25 25 25 25 24
21 22 23 24 24 25 26 27 27 27 27 27 27 27 28 28 28 28 27 27 26 26 27 27 27 27 26 26 26 26 26 26 26 26 26 26 26 26 25 24 25 24 24 23
20 21 22 23 24 24 25 25 26 26 26 26 26 26 26 26 26 26 25 25 25 26 26 26 27 27 27 27 27 27 26 27 26 26 26 26 25 25 24 24 25 25 24 24
21 21 22 22 23 23 24 24 24 25 25 25 25 26 26 25 25 25 25 25 25 25 26 26 26 25 25 26 26 27 26 26 26 26 26 26 25 25 25 24 24 25 24 24
20 20 21 21 22 22 23 23 23 24 25 25 25 24 25 25 25 25 25 24 24 24 24 24 23 24 24 24 24 25 25 25 25 25 25 25 25 25 24 24 25 25 24 23
19 20 20 21 21 21 21 22 22 22 23 23 23 23 24 23 24 24 24 24 24 24 23 23 22 22 22 23 23 23 23 23 23 24 24 24 24 24 24 24 24 23 22 22
18 19 19 18 18 19 19 19 20 20 20 21 22 22 22 22 23 23 23 23 22 22 22 22 22 22 22 23 23 23 23 22 23 22 22 22 23 23 23 23 22 21 21 21
Wind_Direction
239 242 247 251 254 256 256 259 263 270 273 276 279 284 287 287 288 290 287 285 285 289 292 293 295 299 302 304 304 305 309 308 308 309 310 312 314 315 315 314 311 309 311 311
245 246 248 251 253 255 258 263 265 268 271 271 273 279 282 283 284 286 285 283 282 283 284 287 290 293 298 301 301 302 304 304 307 309 309 310 311 313 314 313 312 309 308 309
248 250 251 252 253 254 257 260 262 265 268 269 273 278 279 280 281 281 280 280 281 282 283 284 286 289 293 296 297 300 301 302 304 306 306 308 309 310 310 311 311 309 308 308
248 250 251 252 252 254 257 258 259 262 264 266 271 277 278 279 280 279 279 279 280 281 282 283 285 288 290 293 294 297 299 301 302 303 303 304 306 307 308 309 308 308 308 306
247 251 254 254 253 256 258 258 259 262 264 267 269 274 276 277 280 280 279 278 278 280 282 285 286 287 288 291 292 293 295 298 300 301 301 302 303 305 306 307 308 309 307 307
247 249 252 254 254 257 257 258 258 261 264 266 269 272 273 275 278 279 277 277 278 280 281 283 285 287 288 290 291 292 293 294 296 298 300 301 302 303 306 306 306 307 307 307
247 250 253 253 254 256 255 257 260 262 263 263 266 268 272 274 276 277 276 276 278 280 281 281 284 286 286 288 289 290 291 292 293 296 298 299 300 301 303 305 305 305 305 307
247 249 250 253 254 254 256 259 261 260 261 262 264 267 270 273 274 275 275 275 277 278 280 282 284 285 285 286 287 289 290 291 292 294 296 297 298 299 300 302 302 303 305 306
247 249 250 253 254 254 256 258 259 259 260 263 265 267 269 271 272 272 272 273 275 276 279 282 284 285 285 286 287 287 287 288 289 291 294 295 297 298 299 300 302 303 305 306
248 249 250 251 252 254 256 257 257 258 260 261 263 266 268 269 270 270 271 273 276 278 279 281 282 284 286 287 287 286 286 287 287 289 292 294 296 298 299 300 302 303 303 304
247 248 249 250 251 252 254 255 256 258 260 262 263 265 266 268 270 271 274 276 277 277 279 281 282 284 285 285 284 284 285 286 287 289 291 293 295 297 298 298 300 301 301 300
247 248 250 250 251 253 254 255 257 259 262 265 266 266 267 268 270 273 275 276 276 277 279 281 282 283 284 283 283 283 284 286 288 289 290 292 294 296 297 297 298 299 300 300
250 250 250 251 251 252 253 255 256 259 262 264 265 265 267 269 271 273 275 275 275 276 278 279 280 282 282 281 281 282 282 284 286 288 290 292 293 293 294 296 297 298 299 301
250 251 251 252 251 250 251 253 255 258 261 262 263 264 265 268 272 274 275 274 275 275 276 277 278 280 281 282 283 284 284 285 285 287 290 291 292 293 295 296 298 299 299 301
249 250 251 252 254 251 251 253 254 256 258 259 261 264 266 268 271 274 275 274 276 277 277 277 278 279 280 281 284 285 286 286 287 289 291 293 294 294 295 296 298 299 301 302
248 249 250 252 253 251 251 252 254 256 257 259 261 264 266 268 270 272 274 275 276 278 278 278 279 280 280 280 284 284 285 285 287 290 293 295 295 296 297 298 299 301 302 303
247 248 249 250 250 249 250 252 253 255 256 258 261 263 265 267 270 272 275 275 275 276 277 278 278 279 280 280 282 284 285 285 287 290 292 294 294 296 298 299 301 303 303 303
248 248 249 251 250 250 251 252 252 254 255 257 259 261 263 266 269 272 275 276 276 276 277 277 276 276 277 279 280 283 285 286 286 288 290 292 294 296 298 299 299 299 300 302
251 251 251 252 251 250 252 253 254 256 257 258 260 262 263 265 267 269 272 275 276 277 277 275 275 275 275 277 279 282 284 285 285 287 289 291 292 294 297 298 298 299 300 301
251 251 252 251 250 251 253 254 256 258 260 260 262 263 265 266 268 270 273 272 273 275 277 278 278 279 278 278 279 281 283 284 286 287 289 290 292 293 295 297 298 299 300 301
251 252 252 251 250 252 254 256 257 259 260 262 262 263 265 266 268 270 272 274 275 276 276 278 279 280 282 282 281 280 282 283 285 287 289 291 292 294 295 296 297 298 299 300
250 251 251 251 252 253 255 256 256 257 259 261 261 263 265 266 268 269 271 273 274 275 276 277 278 280 280 280 281 281 281 282 284 286 288 290 291 291 293 295 296 297 298 300
251 253 255 255 256 256 258 258 257 258 258 259 261 262 264 266 268 268 271 272 273 275 276 277 278 278 278 279 281 283 282 283 284 286 288 289 290 290 292 294 295 296 297 298
254 255 257 259 258 258 259 261 261 259 257 257 259 262 264 266 267 268 270 271 273 276 277 277 277 278 276 277 278 280 282 284 285 285 286 287 287 289 291 294 296 297 297 297
256 256 256 257 259 261 261 261 260 260 260 259 261 264 266 268 268 269 269 269 272 274 275 275 276 278 278 279 280 281 283 284 285 286 287 286 287 290 293 295 296 296 297 297
256 257 258 258 259 260 261 261 261 260 259 260 262 264 267 268 269 270 269 269 270 270 272 275 276 277 279 281 283 283 283 284 286 286 287 288 289 289 291 293 295 296 297 299
260 261 260 261 261 260 259 259 259 259 260 260 262 264 266 268 269 269 269 271 272 271 272 275 277 277 277 279 281 283 283 283 285 285 288 290 291 291 291 291 292 294 296 298
Height
5880 5882 5883 5884 5885 5886 5887 5889 5890 5889 5888 5888 5886 5885 5884 5883 5882 5881 5880 5879 5878 5877 5876 5875 5873 5871 5870 5867 5866 5864 5862 5859 5857 5855 5852 5850 5847 5845 5842 5840 5837 5834 5831 5828
5873 5875 5876 5878 5879 5881 5882 5882 5883 5883 5883 5882 5881 5880 5879 5878 5878 5877 5876 5875 5874 5873 5872 5871 5869 5868 5866 5864 5862 5860 5858 5856 5853 5851 5848 5846 5843 5841 5838 5836 5833 5830 5828 5824
5868 5868 5870 5871 5874 5875 5875 5876 5877 5878 5878 5876 5876 5875 5874 5874 5873 5872 5871 5871 5870 5869 5868 5867 5865 5864 5862 5860 5858 5856 5854 5851 5849 5846 5844 5842 5839 5837 5834 5832 5829 5826 5823 5820
5861 5862 5863 5868 5867 5868 5869 5870 5871 5871 5870 5870 5870 5870 5869 5868 5868 5867 5866 5865 5865 5864 5863 5862 5860 5859 5857 5856 5854 5852 5848 5846 5844 5842 5839 5837 5835 5832 5830 5827 5824 5821 5818 5815
5854 5855 5857 5858 5859 5861 5862 5862 5863 5864 5864 5864 5864 5864 5863 5863 5862 5862 5861 5860 5859 5858 5857 5856 5855 5854 5852 5850 5848 5846 5844 5842 5839 5837 5834 5832 5830 5827 5825 5822 5819 5816 5812 5809
5846 5848 5851 5853 5853 5854 5856 5855 5857 5857 5858 5858 5858 5859 5858 5857 5856 5856 5855 5854 5854 5853 5852 5851 5849 5848 5846 5845 5843 5840 5838 5836 5834 5831 5829 5827 5824 5822 5819 5816 5813 5810 5807 5804
5839 5841 5844 5844 5845 5848 5850 5850 5850 5850 5851 5851 5852 5852 5852 5851 5850 5850 5849 5848 5848 5847 5846 5845 5844 5842 5840 5839 5837 5834 5832 5830 5828 5826 5823 5821 5819 5816 5814 5811 5808 5804 5801 5798
5831 5834 5838 5836 5838 5840 5841 5842 5843 5843 5844 5845 5845 5845 5845 5844 5844 5843 5842 5842 5841 5840 5839 5838 5837 5836 5834 5832 5830 5828 5826 5824 5821 5820 5817 5815 5813 5810 5807 5804 5801 5798 5795 5791
5823 5826 5827 5828 5830 5832 5833 5834 5835 5836 5836 5837 5837 5837 5837 5837 5837 5836 5836 5835 5834 5833 5832 5831 5830 5829 5827 5825 5823 5821 5819 5817 5815 5813 5811 5808 5806 5803 5800 5797 5794 5791 5788 5784
5814 5816 5818 5820 5821 5823 5825 5826 5827 5828 5828 5829 5829 5829 5830 5830 5830 5829 5828 5828 5827 5826 5825 5824 5823 5821 5820 5818 5816 5814 5812 5810 5808 5806 5804 5801 5799 5796 5793 5790 5787 5784 5781 5777
5805 5807 5809 5811 5813 5815 5816 5817 5818 5819 5820 5820 5821 5821 5822 5822 5822 5821 5821 5820 5819 5819 5818 5816 5815 5814 5812 5810 5808 5806 5805 5803 5801 5799 5797 5794 5791 5788 5785 5783 5780 5777 5773 5770
5796 5798 5800 5802 5804 5806 5807 5809 5810 5811 5812 5813 5813 5813 5814 5814 5814 5813 5813 5812 5812 5811 5810 5808 5807 5806 5804 5802 5801 5799 5797 5795 5793 5791 5789 5786 5783 5781 5777 5775 5772 5769 5766 5762
5787 5789 5791 5793 5795 5796 5798 5800 5801 5802 5803 5804 5805 5805 5805 5806 5805 5805 5805 5804 5803 5803 5802 5800 5799 5798 5796 5794 5793 5791 5789 5787 5785 5783 5780 5778 5775 5772 5769 5767 5764 5761 5758 5755
5777 5780 5781 5783 5785 5787 5788 5790 5792 5793 5795 5796 5796 5797 5797 5797 5797 5797 5796 5796 5795 5794 5793 5792 5791 5790 5788 5787 5785 5783 5781 5779 5777 5775 5772 5770 5767 5764 5761 5759 5756 5753 5750 5747
5768 5770 5772 5774 5775 5777 5779 5781 5783 5784 5786 5787 5787 5788 5789 5789 5789 5789 5788 5787 5786 5785 5784 5784 5783 5782 5780 5779 5777 5775 5773 5771 5769 5767 5764 5761 5759 5756 5754 5751 5748 5745 5742 5738
5758 5761 5763 5764 5766 5768 5770 5772 5773 5775 5776 5777 5778 5779 5780 5780 5780 5780 5779 5779 5778 5777 5776 5775 5774 5773 5772 5770 5769 5767 5765 5763 5761 5759 5757 5754 5751 5748 5746 5743 5740 5737 5734 5731
5749 5752 5754 5755 5757 5758 5760 5762 5764 5765 5767 5768 5769 5770 5770 5771 5771 5771 5770 5769 5769 5768 5766 5765 5764 5764 5763 5762 5760 5759 5757 5755 5753 5751 5749 5746 5743 5740 5738 5735 5732 5729 5726 5723
5740 5742 5744 5746 5747 5749 5751 5753 5754 5756 5757 5759 5760 5761 5761 5762 5762 5762 5761 5760 5759 5758 5757 5756 5755 5755 5754 5753 5751 5750 5748 5747 5745 5743 5741 5738 5735 5732 5730 5727 5724 5721 5719 5715
5731 5733 5735 5736 5738 5740 5742 5744 5745 5747 5748 5749 5751 5752 5752 5753 5753 5753 5752 5751 5750 5749 5749 5747 5746 5744 5744 5744 5743 5742 5740 5738 5736 5734 5732 5730 5727 5724 5722 5719 5717 5714 5711 5708
5722 5724 5726 5728 5730 5732 5734 5736 5737 5738 5739 5741 5741 5742 5743 5743 5744 5743 5743 5742 5741 5741 5740 5739 5737 5736 5736 5736 5734 5733 5731 5730 5728 5726 5724 5721 5719 5717 5714 5712 5709 5706 5704 5701
5715 5716 5718 5720 5722 5724 5726 5727 5729 5730 5731 5732 5733 5733 5734 5734 5734 5734 5734 5733 5732 5732 5731 5730 5730 5729 5728 5726 5725 5724 5722 5721 5719 5718 5716 5713 5711 5709 5707 5704 5702 5699 5696 5694
5708 5710 5711 5713 5714 5716 5717 5719 5720 5721 5723 5723 5724 5725 5725 5725 5725 5725 5725 5725 5724 5723 5723 5722 5721 5720 5719 5718 5716 5715 5714 5713 5711 5709 5707 5705 5703 5701 5699 5697 5694 5692 5689 5686
5702 5703 5705 5706 5707 5708 5709 5710 5711 5712 5713 5714 5715 5716 5716 5716 5716 5716 5716 5716 5715 5715 5714 5714 5713 5712 5711 5709 5708 5707 5705 5704 5702 5701 5699 5697 5695 5693 5691 5689 5687 5685 5682 5679
5696 5697 5698 5698 5699 5700 5701 5702 5702 5703 5704 5705 5706 5707 5707 5708 5708 5708 5707 5707 5707 5706 5706 5705 5704 5703 5702 5701 5700 5698 5697 5696 5694 5692 5691 5689 5687 5685 5683 5681 5679 5677 5675 5672
5689 5690 5690 5691 5692 5692 5692 5693 5694 5694 5695 5696 5697 5698 5698 5699 5699 5699 5699 5698 5698 5698 5697 5697 5696 5695 5694 5693 5691 5690 5689 5688 5686 5684 5682 5681 5679 5677 5675 5673 5671 5669 5667 5665
5683 5683 5684 5684 5684 5684 5685 5685 5685 5686 5687 5688 5689 5689 5690 5690 5690 5690 5690 5690 5690 5689 5689 5688 5688 5687 5686 5685 5683 5682 5681 5679 5678 5676 5675 5673 5671 5669 5667 5666 5664 5662 5660 5658
5676 5677 5677 5677 5678 5678 5678 5678 5679 5679 5680 5681 5681 5682 5682 5682 5682 5682 5682 5682 5682 5681 5681 5680 5679 5679 5678 5677 5676 5674 5673 5671 5670 5669 5667 5665 5663 5661 5660 5658 5656 5655 5653 5651